Find Turksat 4B

NORAD ID: 40984 Int'l Des: 2015-060 Owner: TURKS Country: TR operational
HEOCIRCULARGSOGEO

リアルタイム位置

3D地球を読み込み中...

Turksat 4Bについて

説明を読み込み中...

次回通過

Passes for default location (London). Set your location on the main map for personalized predictions.

高度履歴

Loading altitude history...

軌道要素

1 40984U 15060A 26104.45395928 .00000120 00000-0 00000+0 0 9997
2 40984 0.0405 60.8069 0002040 318.8889 36.3470 1.00270620 38457
Epoch: Apr 14, 2026 • Age: 8 hours

現在のステータス

高度 35794.1 km
速度 3.07 km/s
衛星直下点 0.00°N, 49.99°E
打ち上げ日 Oct 16, 2015
運用期間 10.4 years
タイプ other

技術仕様

分類 Payload
質量 4928.00 kg
乾燥質量 2500.00 kg
総質量 4928.00 kg
長さ 6.20 m
直径 3.80 m
スパン 25.30 m
形状 Box + 2 pan
製造者 MELCO
バスタイプ DS-2000
フェーズステータス In Orbit
所有者/国 TURKS/TR

Most Searched